Location: Great Snoring
(52.8667°N, 0.8833°E)
Time: 20:58:29
(UTC+00:00)

Cosmos 1842 Rocket - Pass Details

Date: 19 May 2025
Orbit: 600 x 626 km, 82.5° (Epoch: 18 June)

Event Time Altitude Azimuth Distance (km) Brightness Sun altitude
Exits shadow 23:02:49 27° 198° (SSW) 1,168 4.5 -16.3°
Maximum altitude 23:05:08 79° 281° (WNW) 620 3.5 -16.4°
Drops below altitude 10° 23:09:28 10° 9° (N) 1,958 7.3 -16.5°
Sets 23:11:41 0° 11° (N) 2,867 8.3 -16.6°
